Location: London
(51.5074°N, 0.1278°W)
Time: 09:23:08
(UTC+01:00)

Envisat - Pass Details

Date: 02 October 2021
Orbit: 764 x 766 km, 98.2° (Epoch: 25 October)

Event Time Altitude Azimuth Distance (km) Brightness Sun altitude
Rises 05:34:46 0° 20° (NNE) 3,245 6.7 -14.5°
Reaches altitude 10° 05:37:16 10° 29° (NNE) 2,313 6.1 -14.1°
Maximum altitude 05:41:57 36° 96° (E) 1,203 4.7 -13.4°
Drops below altitude 10° 05:46:36 10° 162° (SSE) 2,297 5.6 -12.7°
Sets 05:49:04 0° 171° (S) 3,218 6.2 -12.3°
